KQ4DLB-13 Weather Reports


Display with metric or nautical units.
time (UTC)temp
F
wind
direction
speed
MPH
gust
MPH
rain 1hr
in
rain 24hr
in
rain mn
in
humidity
%
barometer
mb
20260905234503 87 204 11.0 18.0 0.00 0.00 0.00 74 987.0
20260905234002 87 204 13.0 17.0 0.00 0.00 0.00 73 987.0
20260905233502 88 199 12.0 18.0 0.00 0.00 0.00 71 987.0
20260905233003 88 179 14.0 22.0 0.00 0.00 0.00 70 986.9
20260905232502 89 177 14.0 20.0 0.00 0.00 0.00 69 986.8
20260905232002 90 176 12.0 19.0 0.00 0.00 0.00 67 986.8
20260905231502 91 181 12.0 18.0 0.00 0.00 0.00 65 986.8
20260905231002 92 170 12.0 17.0 0.00 0.00 0.00 61 986.8
20260905230502 92 176 11.0 17.0 0.00 0.00 0.00 59 986.9
20260905230003 93 169 11.0 17.0 0.00 0.00 0.00 57 986.9
20260905225502 93 176 10.0 17.0 0.00 0.00 0.00 58 986.9
20260905225002 94 184 12.0 17.0 0.00 0.00 0.00 58 986.9
20260905224502 95 171 12.0 18.0 0.00 0.00 0.00 54 986.9
20260905224002 95 168 10.0 15.0 0.00 0.00 0.00 53 986.9
20260905223502 95 167 8.0 14.0 0.00 0.00 0.00 55 986.8
20260905223002 96 170 10.0 16.0 0.00 0.00 0.00 55 986.8
20260905222502 96 169 9.0 16.0 0.00 0.00 0.00 53 986.9
20260905222002 96 171 7.0 12.0 0.00 0.00 0.00 51 986.9
20260905221502 96 176 8.0 16.0 0.00 0.00 0.00 51 986.9
20260905221003 96 174 7.0 13.0 0.00 0.00 0.00 50 987.0
20260905220502 96 172 8.0 14.0 0.00 0.00 0.00 50 987.0
20260905220002 95 172 7.0 10.0 0.00 0.00 0.00 51 987.0
20260905215503 95 169 9.0 14.0 0.00 0.00 0.00 51 987.0
20260905215002 95 170 8.0 14.0 0.00 0.00 0.00 52 987.0
20260905214502 95 163 11.0 17.0 0.00 0.00 0.00 54 987.1
20260905214002 96 167 9.0 14.0 0.00 0.00 0.00 52 987.1
20260905213502 96 164 9.0 15.0 0.00 0.00 0.00 52 987.1
20260905213002 97 172 8.0 13.0 0.00 0.00 0.00 52 987.1
20260905212503 97 159 7.0 10.0 0.00 0.00 0.00 50 987.1
20260905212002 98 175 9.0 14.0 0.00 0.00 0.00 50 987.1
20260905211502 97 169 7.0 12.0 0.00 0.00 0.00 51 987.1
20260905211002 96 164 7.0 13.0 0.00 0.00 0.00 51 987.2
20260905210502 96 172 8.0 12.0 0.00 0.00 0.00 50 987.2
20260905210003 96 172 8.0 11.0 0.00 0.00 0.00 51 987.3
20260905205503 97 164 7.0 11.0 0.00 0.00 0.00 49 987.3
20260905205002 97 181 11.0 19.0 0.00 0.00 0.00 50 987.4
20260905204502 96 162 6.0 11.0 0.00 0.00 0.00 50 987.5
20260905204002 96 171 8.0 12.0 0.00 0.00 0.00 52 987.6
20260905203503 96 168 11.0 15.0 0.00 0.00 0.00 51 987.6
20260905203002 96 170 10.0 16.0 0.00 0.00 0.00 51 987.6
20260905202502 96 162 11.0 17.0 0.00 0.00 0.00 52 987.7
20260905202002 95 180 9.0 15.0 0.00 0.00 0.00 53 987.8
20260905201502 95 172 9.0 15.0 0.00 0.00 0.00 55 987.9
20260905201002 95 167 9.0 15.0 0.00 0.00 0.00 51 987.9
20260905200502 95 264 6.0 10.0 0.00 0.00 0.00 50 988.0
20260905200003 95 174 11.0 17.0 0.00 0.00 0.00 52 988.1
20260905195501 95 177 9.0 16.0 0.00 0.00 0.00 53 988.2
20260905195003 95 178 11.0 15.0 0.00 0.00 0.00 54 988.2
20260905194503 95 169 9.0 12.0 0.00 0.00 0.00 54 988.3
20260905194002 95 179 10.0 14.0 0.00 0.00 0.00 54 988.3
20260905193502 95 184 9.0 15.0 0.00 0.00 0.00 51 988.3
20260905193003 95 185 9.0 14.0 0.00 0.00 0.00 52 988.3
20260905192502 96 175 9.0 13.0 0.00 0.00 0.00 53 988.4
20260905192002 96 168 9.0 13.0 0.00 0.00 0.00 49 988.4
20260905191502 97 176 11.0 16.0 0.00 0.00 0.00 50 988.5
20260905191002 96 180 7.0 13.0 0.00 0.00 0.00 50 988.6
20260905190503 96 159 8.0 16.0 0.00 0.00 0.00 50 988.8
20260905190002 96 153 6.0 10.0 0.00 0.00 0.00 51 988.9
20260905185502 96 161 6.0 9.0 0.00 0.00 0.00 52 989.0
20260905185002 95 162 8.0 17.0 0.00 0.00 0.00 52 989.1
20260905184502 95 165 10.0 18.0 0.00 0.00 0.00 51 989.1
20260905184002 95 176 8.0 14.0 0.00 0.00 0.00 52 989.2
20260905183502 94 178 7.0 12.0 0.00 0.00 0.00 52 989.2
20260905183002 94 164 10.0 14.0 0.00 0.00 0.00 55 989.3
20260905182502 93 182 7.0 12.0 0.00 0.00 0.00 57 989.3
20260905182002 92 177 11.0 18.0 0.00 0.00 0.00 60 989.3
20260905181503 93 159 13.0 17.0 0.00 0.00 0.00 61 989.4
20260905181002 94 157 14.0 19.0 0.00 0.00 0.00 59 989.5
20260905180502 95 175 12.0 20.0 0.00 0.00 0.00 56 989.5
20260905180002 95 179 13.0 22.0 0.00 0.00 0.00 53 989.5
20260905175502 95 181 8.0 16.0 0.00 0.00 0.00 53 989.5
20260905175002 95 179 8.0 14.0 0.00 0.00 0.00 54 989.5
20260905174502 94 292 6.0 10.0 0.00 0.00 0.00 54 989.5
20260905174003 94 176 12.0 18.0 0.00 0.00 0.00 56 989.6
20260905173502 94 185 10.0 20.0 0.00 0.00 0.00 56 989.6
20260905173002 94 178 7.0 13.0 0.00 0.00 0.00 56 989.7
20260905172502 94 170 8.0 12.0 0.00 0.00 0.00 57 989.7
20260905172002 94 142 6.0 11.0 0.00 0.00 0.00 55 989.7
20260905171502 94 201 7.0 11.0 0.00 0.00 0.00 56 989.8
20260905171002 93 179 10.0 18.0 0.00 0.00 0.00 56 989.8
20260905170502 93 347 10.0 17.0 0.00 0.00 0.00 55 989.8
20260905170003 93 185 8.0 16.0 0.00 0.00 0.00 57 989.9
20260905165502 93 347 7.0 15.0 0.00 0.00 0.00 58 990.0
20260905165002 93 127 6.0 12.0 0.00 0.00 0.00 56 990.1
20260905164502 93 236 7.0 14.0 0.00 0.00 0.00 57 990.2
20260905164002 93 327 7.0 16.0 0.00 0.00 0.00 57 990.2
20260905163502 93 300 6.0 12.0 0.00 0.00 0.00 58 990.2
20260905163002 93 232 6.0 13.0 0.00 0.00 0.00 58 990.2
20260905162502 92 321 7.0 13.0 0.00 0.00 0.00 58 990.2
20260905162003 91 317 5.0 10.0 0.00 0.00 0.00 62 990.2
20260905161502 91 319 5.0 7.0 0.00 0.00 0.00 61 990.3
20260905161002 90 318 5.0 8.0 0.00 0.00 0.00 62 990.3
20260905160502 90 319 5.0 7.0 0.00 0.00 0.00 64 990.3
20260905160003 89 319 5.0 7.0 0.00 0.00 0.00 65 990.4
20260905155502 89 286 9.0 22.0 0.00 0.00 0.00 69 990.4
20260905155002 89 239 14.0 20.0 0.00 0.00 0.00 68 990.5
20260905154502 88 242 13.0 22.0 0.00 0.00 0.00 66 990.5
20260905154002 88 238 14.0 21.0 0.00 0.00 0.00 70 990.6
20260905153502 87 224 14.0 23.0 0.00 0.00 0.00 71 990.6
20260905153002 87 213 15.0 24.0 0.00 0.00 0.00 71 990.6
20260905152502 86 215 12.0 21.0 0.00 0.00 0.00 72 990.6
20260905152003 85 213 11.0 16.0 0.00 0.00 0.00 74 990.6
20260905151502 85 267 9.0 17.0 0.00 0.00 0.00 77 990.4
20260905151002 85 275 5.0 13.0 0.00 0.00 0.00 79 990.3
20260905150502 84 312 3.0 6.0 0.00 0.00 0.00 81 990.4
20260905150002 84 291 4.0 10.0 0.00 0.00 0.00 81 990.4
20260905145503 83 316 2.0 4.0 0.00 0.00 0.00 80 990.4
20260905145003 82 310 4.0 7.0 0.00 0.00 0.00 81 990.4
20260905144502 82 293 3.0 8.0 0.00 0.00 0.00 84 990.7
20260905144002 82 278 5.0 12.0 0.00 0.00 0.00 85 990.9
20260905143502 82 286 5.0 7.0 0.00 0.00 0.00 84 991.0
20260905143003 82 295 3.0 9.0 0.00 0.00 0.00 83 991.0
20260905142502 81 304 4.0 12.0 0.00 0.00 0.00 86 990.9
20260905142002 81 290 6.0 14.0 0.00 0.00 0.00 87 991.0
20260905141502 80 317 3.0 7.0 0.00 0.00 0.00 89 991.0
20260905141002 79 299 5.0 24.0 0.00 0.00 0.00 90 990.9
20260905140502 79 254 7.0 16.0 0.00 0.00 0.00 90 990.9
20260905140003 78 311 4.0 8.0 0.00 0.00 0.00 90 990.9
20260905135502 78 311 4.0 7.0 0.00 0.00 0.00 91 990.9
20260905135002 77 307 4.0 7.0 0.00 0.00 0.00 93 990.9
20260905134502 77 280 5.0 11.0 0.00 0.00 0.00 94 991.0
20260905134002 76 246 5.0 14.0 0.00 0.00 0.00 95 991.0
20260905133502 76 252 6.0 15.0 0.00 0.00 0.00 95 991.0
20260905133003 76 208 9.0 18.0 0.00 0.00 0.00 96 991.0
20260905132502 76 195 9.0 18.0 0.00 0.00 0.00 97 991.0
20260905132002 75 198 11.0 17.0 0.00 0.00 0.00 98 991.0
20260905131502 75 194 11.0 18.0 0.00 0.00 0.00 98 991.0
20260905131002 75 202 10.0 17.0 0.00 0.00 0.00 98 990.9
20260905130502 75 196 10.0 17.0 0.00 0.00 0.00 99 990.9
20260905130002 74 194 11.0 17.0 0.00 0.00 0.00 99 990.9
20260905125502 74 197 11.0 17.0 0.00 0.00 0.00 99 991.0
20260905125003 74 203 12.0 16.0 0.00 0.00 0.00 99 991.0
20260905124503 73 218 10.0 16.0 0.00 0.00 0.00 99 991.0
20260905124002 73 221 10.0 17.0 0.00 0.00 0.00 99 991.0
20260905123502 73 214 8.0 17.0 0.00 0.00 0.00 99 990.9
20260905123003 73 248 5.0 14.0 0.00 0.00 0.00 99 990.9
20260905122502 73 250 5.0 13.0 0.00 0.00 0.00 99 990.9
20260905122002 72 264 3.0 11.0 0.00 0.00 0.00 99 990.7
20260905121502 72 317 2.0 2.0 0.00 0.00 0.00 99 990.7
20260905121003 72 316 2.0 2.0 0.00 0.00 0.00 99 990.6
20260905120502 72 317 2.0 4.0 0.00 0.00 0.00 99 990.6
20260905120002 72 317 3.0 5.0 0.00 0.00 0.00 99 990.5
20260905115502 72 315 4.0 6.0 0.00 0.00 0.00 99 990.4
20260905115002 72 308 3.0 6.0 0.00 0.00 0.00 99 990.4
20260905114502 72 317 4.0 6.0 0.00 0.00 0.00 99 990.4
20260905114003 72 314 4.0 5.0 0.00 0.00 0.00 99 990.3
20260905113502 72 317 4.0 6.0 0.00 0.00 0.00 99 990.2
20260905113002 72 316 4.0 5.0 0.00 0.00 0.00 99 990.2
20260905112502 72 316 4.0 6.0 0.00 0.00 0.00 99 990.1
20260905112002 72 315 4.0 7.0 0.00 0.00 0.00 99 990.1
20260905111502 72 314 4.0 8.0 0.00 0.00 0.00 99 990.0
20260905111002 72 317 3.0 4.0 0.00 0.00 0.00 99 989.9
20260905110502 72 312 3.0 12.0 0.00 0.00 0.00 99 989.8
20260905110002 72 313 4.0 20.0 0.00 0.00 0.00 99 989.8
20260905105503 72 318 3.0 4.0 0.00 0.00 0.00 99 989.8
20260905105002 72 317 3.0 5.0 0.00 0.00 0.00 98 989.7
20260905104503 72 318 4.0 5.0 0.00 0.00 0.00 99 989.6
20260905104002 72 309 4.0 15.0 0.00 0.00 0.00 98 989.6
20260905103502 72 310 3.0 9.0 0.00 0.00 0.00 98 989.6
20260905103002 72 306 4.0 8.0 0.00 0.00 0.00 98 989.6
20260905102503 72 319 4.0 5.0 0.00 0.00 0.00 98 989.6
20260905102003 72 313 4.0 8.0 0.00 0.00 0.00 98 989.6
20260905101502 72 305 5.0 12.0 0.00 0.00 0.00 98 989.6
20260905101002 72 316 4.0 12.0 0.00 0.00 0.00 98 989.5
20260905100502 72 306 5.0 13.0 0.00 0.00 0.00 98 989.6
20260905100002 72 308 6.0 15.0 0.00 0.00 0.00 98 989.6
20260905095502 72 311 5.0 15.0 0.00 0.00 0.00 98 989.6
20260905095003 72 312 4.0 12.0 0.00 0.00 0.00 98 989.6
20260905094502 72 314 4.0 11.0 0.00 0.00 0.00 98 989.6
20260905094002 72 309 4.0 13.0 0.00 0.00 0.00 98 989.6
20260905093503 72 313 4.0 10.0 0.00 0.00 0.00 98 989.7
20260905093003 72 311 4.0 14.0 0.00 0.00 0.00 98 989.6
20260905092502 72 302 4.0 15.0 0.00 0.00 0.00 98 989.7
20260905092002 72 313 3.0 12.0 0.00 0.00 0.00 98 989.6
20260905091503 72 315 3.0 8.0 0.00 0.00 0.00 98 989.6
20260905091002 72 310 4.0 12.0 0.00 0.00 0.00 98 989.6
20260905090502 72 290 4.0 26.0 0.00 0.00 0.00 98 989.6
20260905090003 72 294 4.0 13.0 0.00 0.00 0.00 98 989.6
20260905085502 72 305 5.0 17.0 0.00 0.00 0.00 98 989.6
20260905085002 72 306 5.0 15.0 0.00 0.00 0.00 98 989.6
20260905084502 73 316 3.0 6.0 0.00 0.00 0.00 98 989.5
20260905084002 73 316 4.0 6.0 0.00 0.00 0.00 98 989.6
20260905083502 73 316 4.0 7.0 0.00 0.00 0.00 98 989.6
20260905083003 73 316 4.0 6.0 0.00 0.00 0.00 98 989.6
20260905082503 73 316 3.0 5.0 0.00 0.00 0.00 98 989.7
20260905082002 73 316 4.0 6.0 0.00 0.00 0.00 97 989.7
20260905081502 73 316 4.0 6.0 0.00 0.00 0.00 97 989.7
20260905081007 73 316 3.0 5.0 0.00 0.00 0.00 97 989.8
20260905080503 73 316 4.0 8.0 0.00 0.00 0.00 97 989.8
20260905080002 73 317 4.0 6.0 0.00 0.00 0.00 97 989.8
20260905075502 73 317 4.0 6.0 0.00 0.00 0.00 97 989.7
20260905075002 73 316 3.0 5.0 0.00 0.00 0.00 97 989.7
20260905074502 73 316 3.0 5.0 0.00 0.00 0.00 97 989.7
20260905074002 73 316 3.0 5.0 0.00 0.00 0.00 97 989.7
20260905073502 73 316 2.0 4.0 0.00 0.00 0.00 97 989.7
20260905073002 73 316 4.0 13.0 0.00 0.00 0.00 97 989.7
20260905072502 73 315 5.0 17.0 0.00 0.00 0.00 97 989.7
20260905072002 73 317 4.0 6.0 0.00 0.00 0.00 97 989.7
20260905071503 73 317 4.0 5.0 0.00 0.00 0.00 97 989.7
20260905071002 73 317 4.0 7.0 0.00 0.00 0.00 97 989.6
20260905070502 73 216 11.0 25.0 0.00 0.00 0.00 97 989.6
20260905070002 74 217 16.0 24.0 0.00 0.00 0.00 97 989.6
20260905065502 74 245 16.0 25.0 0.00 0.00 0.00 97 989.7
20260905065002 74 186 15.0 25.0 0.00 0.00 0.00 97 989.7
20260905064503 74 194 17.0 25.0 0.00 0.00 0.00 97 989.6
20260905064002 74 251 16.0 24.0 0.00 0.00 0.00 97 989.6
20260905063502 74 247 16.0 23.0 0.00 0.00 0.00 97 989.6
20260905063002 74 221 16.0 23.0 0.00 0.00 0.00 97 989.6
20260905062502 74 190 16.0 25.0 0.00 0.00 0.00 97 989.6
20260905062003 74 171 17.0 26.0 0.00 0.00 0.00 97 989.6
20260905061502 74 171 19.0 24.0 0.00 0.00 0.00 97 989.7
20260905061002 74 185 18.0 26.0 0.00 0.00 0.00 97 989.6
20260905060502 74 201 13.0 22.0 0.00 0.00 0.00 97 989.7
20260905060002 74 247 12.0 22.0 0.00 0.00 0.00 97 989.7
20260905055503 74 268 11.0 20.0 0.00 0.00 0.00 96 989.7
20260905055002 74 233 11.0 22.0 0.00 0.00 0.00 96 989.7
20260905054502 74 213 10.0 19.0 0.00 0.00 0.00 96 989.7
20260905054002 74 280 11.0 37.0 0.00 0.00 0.00 96 989.8
20260905053503 74 173 18.0 43.0 0.00 0.00 0.00 96 989.9
20260905053002 74 171 15.0 23.0 0.00 0.00 0.00 96 989.9
20260905052502 74 214 7.0 18.0 0.00 0.00 0.00 96 989.9
20260905052002 74 282 10.0 20.0 0.00 0.00 0.00 96 989.9
20260905051502 74 224 7.0 17.0 0.00 0.00 0.00 96 989.9
20260905051002 75 272 10.0 19.0 0.00 0.00 0.00 95 989.9
20260905050502 75 182 13.0 19.0 0.00 0.00 0.00 95 990.0
20260905050003 75 188 6.0 18.0 0.00 0.00 0.00 95 990.0
20260905045502 75 227 7.0 20.0 0.00 0.00 0.00 95 990.0
20260905045002 75 263 14.0 20.0 0.00 0.00 0.00 95 990.1
20260905044503 75 201 12.0 19.0 0.00 0.00 0.00 95 990.1
20260905044002 75 236 6.0 17.0 0.00 0.00 0.00 95 990.1
20260905043502 75 195 9.0 19.0 0.00 0.00 0.00 95 990.1
20260905043003 75 239 7.0 20.0 0.00 0.00 0.00 94 990.1
20260905042503 75 166 17.0 22.0 0.00 0.00 0.00 94 990.2
20260905042002 75 171 15.0 23.0 0.00 0.00 0.00 94 990.2
20260905041502 75 173 14.0 31.0 0.00 0.00 0.00 94 990.2
20260905041002 75 182 9.0 19.0 0.00 0.00 0.00 94 990.1
20260905040502 75 314 2.0 4.0 0.00 0.00 0.00 94 990.2
20260905040002 76 313 2.0 8.0 0.00 0.00 0.00 94 990.2
20260905035503 76 288 3.0 17.0 0.00 0.00 0.00 94 990.3
20260905035002 76 315 2.0 4.0 0.00 0.00 0.00 93 990.2
20260905034502 76 315 2.0 4.0 0.00 0.00 0.00 93 990.3
20260905034002 76 316 2.0 3.0 0.00 0.00 0.00 93 990.4
20260905033503 76 315 1.0 3.0 0.00 0.00 0.00 93 990.4
20260905033002 76 315 1.0 2.0 0.00 0.00 0.00 93 990.4
20260905032502 76 315 1.0 2.0 0.00 0.00 0.00 92 990.5
20260905032002 76 315 1.0 2.0 0.00 0.00 0.00 92 990.5
20260905031502 76 315 1.0 2.0 0.00 0.00 0.00 91 990.5
20260905031003 77 315 1.0 2.0 0.00 0.00 0.00 91 990.5
20260905030502 77 315 1.0 3.0 0.00 0.00 0.00 91 990.6
20260905030002 77 315 3.0 5.0 0.00 0.00 0.00 90 990.6
20260905025502 77 316 2.0 5.0 0.00 0.00 0.00 90 990.6
20260905025002 77 315 1.0 2.0 0.00 0.00 0.00 90 990.6
20260905024502 77 315 1.0 3.0 0.00 0.00 0.00 90 990.6
20260905024002 77 315 2.0 3.0 0.00 0.00 0.00 90 990.5
20260905023502 77 315 2.0 3.0 0.00 0.00 0.00 89 990.6
20260905023002 78 315 2.0 3.0 0.00 0.00 0.00 89 990.5
20260905022502 78 315 1.0 3.0 0.00 0.00 0.00 88 990.5
20260905022002 78 315 1.0 2.0 0.00 0.00 0.00 87 990.5
20260905021503 78 315 1.0 2.0 0.00 0.00 0.00 87 990.5
20260905021002 78 316 4.0 7.0 0.00 0.00 0.00 86 990.5
20260905020502 78 316 6.0 9.0 0.00 0.00 0.00 87 990.4
20260905020002 78 315 2.0 3.0 0.00 0.00 0.00 87 990.1
20260905015502 78 315 1.0 2.0 0.00 0.00 0.00 87 990.1
20260905015003 78 315 1.0 2.0 0.00 0.00 0.00 86 990.1
20260905014502 78 315 1.0 2.0 0.00 0.00 0.00 86 990.0
20260905014002 78 315 1.0 2.0 0.00 0.00 0.00 85 989.8
20260905013503 79 315 1.0 2.0 0.00 0.00 0.00 85 989.7
20260905013002 79 315 1.0 2.0 0.00 0.00 0.00 85 989.7
20260905012501 79 315 1.0 2.0 0.00 0.00 0.00 84 989.7
20260905012002 79 315 1.0 2.0 0.00 0.00 0.00 84 989.7
20260905011503 79 315 1.0 2.0 0.00 0.00 0.00 83 989.6
20260905011002 80 315 1.0 3.0 0.00 0.00 0.00 82 989.5
20260905010502 80 315 2.0 3.0 0.00 0.00 0.00 82 989.5
20260905010002 80 315 2.0 4.0 0.00 0.00 0.00 82 989.4
20260905005502 81 315 3.0 3.0 0.00 0.00 0.00 80 989.3
20260905005002 81 315 3.0 4.0 0.00 0.00 0.00 79 989.3
20260905004503 82 315 3.0 4.0 0.00 0.00 0.00 79 989.3
20260905004002 82 315 3.0 3.0 0.00 0.00 0.00 77 989.3
20260905003502 83 315 3.0 3.0 0.00 0.00 0.00 76 989.3
20260905003002 83 315 3.0 5.0 0.00 0.00 0.00 73 989.3
20260905002502 84 297 5.0 12.0 0.00 0.00 0.00 72 989.3
20260905002003 85 278 8.0 18.0 0.00 0.00 0.00 71 989.3
20260905001502 85 260 9.0 17.0 0.00 0.00 0.00 70 989.3
20260905001002 86 255 11.0 18.0 0.00 0.00 0.00 68 989.4
20260905000502 87 254 11.0 17.0 0.00 0.00 0.00 66 989.4
20260905000002 88 257 11.0 20.0 0.00 0.00 0.00 64 989.4
20260904235502 89 308 8.0 16.0 0.00 0.00 0.00 61 989.6
20260904235002 89 251 8.0 17.0 0.00 0.00 0.00 61 989.6